{"data":{"norad_id":64933,"intl_designator":"2025-158B","name":"STARLINK-34737","alt_names":[],"object_type":"PAYLOAD","status":"ACTIVE","operator":null,"country":"US","launch_date":"2025-07-27","launch_site_code":"AFWTR","launch_vehicle":null,"mission":null,"orbit_class":"UNKNOWN","rcs_meters":null,"size_class":null,"mass_kg":null,"dimensions":null,"purposes":["comms"],"wikipedia_slug":null,"has_3d_model":false,"image_url":null,"decayed_at":null,"tle_current":{"epoch":"2026-05-25T02:41:15.077184Z","epoch_age_seconds":61435,"freshness":"FRESH","line1":"1 64933U 25158B   26145.11198006  .00005407  00000+0  37838-3 0  9997","line2":"2 64933  97.4491   9.0039 0001484  75.5971 284.5421 15.05662412 46854","mean_motion":15.05662412,"eccentricity":0.0001484,"inclination_deg":97.4491,"raan_deg":9.0039,"arg_perigee_deg":75.5971,"mean_anomaly_deg":284.5421,"bstar":0.00037838,"rev_number":4685,"period_min":95.638968504714,"perigee_km":548.44502438507,"apogee_km":550.50113905733,"semimajor_km":6927.6100817212,"source":"CELESTRAK","updated_at":"2026-05-25T13:38:20.628347Z"}}}